Location: Poughquag
(41.6090°N, 73.6820°W)
Time: 10:39:22
(UTC-05:00)

Envisat - Pass Details

Date: 20 January 2020
Orbit: 764 x 766 km, 98.1° (Epoch: 24 February)

Event Time Altitude Azimuth Distance (km) Brightness Sun altitude
Rises 18:53:11 0° 204° (SSW) 3,219 6.7 -21.8°
Reaches altitude 10° 18:56:04 10° 221° (SW) 2,298 6.1 -22.4°
Maximum altitude 18:59:44 20° 268° (W) 1,718 5.7 -23.1°
Drops below altitude 10° 19:03:25 10° 315° (NW) 2,310 6.0 -23.7°
Sets 19:06:21 0° 332° (NNW) 3,242 6.5 -24.3°
